Weather History for Billund, Denmark

Change the Weather History Date:

Thursday, October 4, 2012

  Actual Average Record
Temperature  
Mean Temperature 48 °F -  
Max Temperature 53 °F 51 °F 62 °F (2000)
Min Temperature 42 °F 39 °F 37 °F (2003)
Degree Days  
Heating Degree Days 18    
Moisture  
Dew Point 44 °F    
Average Humidity 88    
Maximum Humidity 93    
Minimum Humidity 72    
Precipitation  
Precipitation 0.00 in - - ()
Sea Level Pressure  
Sea Level Pressure 29.61 in    
Wind  
Wind Speed 5 mph ()    
Max Wind Speed 10 mph    
Max Gust Speed 22 mph    
Visibility 5.7 miles    
Events Fog , Rain    
Averages and records for this station are not official NWS values.
T = Trace of Precipitation, MM = Missing Value Source: Averaged Metar Reports

Daily Weather History Graph

Daily Weather History Graph

Search for Another Location

Airport:

Trip Planner

Search our weather history database for the weather conditions in past years. The results will help you decide how hot, cold, wet, or windy it might be!

Date:

Astronomy

Oct. 04, 2012 Rise Set
Actual Time 7:32 AM CEST 6:50 PM CEST
Civil Twilight 6:55 AM CEST 7:26 PM CEST
Nautical Twilight 6:12 AM CEST 8:09 PM CEST
Astronomical Twilight 5:28 AM CEST 8:53 PM CEST
Moon 8:23 PM CEST (10/4) 12:23 PM CEST (10/4)
Length of Visible Light 12h 31m
Length of Day
11h 17m
Waning Gibbous, 84% of the Moon is Illuminated
Oct 4
Waning Gibbous
Oct 8
Last Quarter
Oct 15
New
Oct 22
First Quarter
Oct 29
Full

Hourly Weather History & Observations

Time (CEST) Temp. Windchill Dew Point Humidity Pressure Visibility Wind Dir Wind Speed Gust Speed Precip Events Conditions
12:20 AM 46.4 °F 43.5 °F 44.6 °F 93% 29.62 in 6.2 mi South 5.8 mph - N/A   Scattered Clouds
12:50 AM 46.4 °F 43.5 °F 44.6 °F 93% 29.62 in 6.2 mi South 5.8 mph - N/A   Partly Cloudy
1:20 AM 46.4 °F 43.5 °F 44.6 °F 93% 29.62 in 6.2 mi South 5.8 mph - N/A   Partly Cloudy
1:50 AM 46.4 °F 43.5 °F 44.6 °F 93% 29.62 in 6.2 mi South 5.8 mph - N/A   Scattered Clouds
2:20 AM 46.4 °F 45.2 °F 44.6 °F 93% 29.62 in 6.2 mi South 3.5 mph - N/A   Scattered Clouds
2:50 AM 46.4 °F 45.2 °F 44.6 °F 93% 29.62 in 6.2 mi South 3.5 mph - N/A   Mostly Cloudy
3:20 AM 46.4 °F 44.3 °F 44.6 °F 93% 29.59 in 6.2 mi SE 4.6 mph - N/A   Mostly Cloudy
3:50 AM 46.4 °F 42.9 °F 42.8 °F 87% 29.59 in 6.2 mi South 6.9 mph - N/A   Mostly Cloudy
4:20 AM 46.4 °F 42.9 °F 44.6 °F 93% 29.59 in 6.2 mi WSW 6.9 mph - N/A   Mostly Cloudy
4:50 AM 46.4 °F 42.9 °F 44.6 °F 93% 29.59 in 6.2 mi West 6.9 mph - N/A   Mostly Cloudy
5:20 AM 46.4 °F 44.3 °F 42.8 °F 87% 29.59 in 6.2 mi SSE 4.6 mph - N/A   Mostly Cloudy
5:50 AM 46.4 °F 44.3 °F 42.8 °F 87% 29.59 in 6.2 mi SSE 4.6 mph - N/A   Mostly Cloudy
6:20 AM 44.6 °F 42.2 °F 42.8 °F 93% 29.62 in 6.2 mi WSW 4.6 mph - N/A Rain Light Rain Showers
6:50 AM 44.6 °F 43.1 °F 42.8 °F 93% 29.59 in 6.2 mi SSW 3.5 mph - N/A Rain Light Rain Showers
7:20 AM 44.6 °F 40.2 °F 42.8 °F 93% 29.59 in 6.2 mi South 8.1 mph - N/A Rain Light Rain Showers
7:50 AM 44.6 °F 40.2 °F 42.8 °F 93% 29.56 in 6.2 mi South 8.1 mph - N/A Rain Light Rain Showers
8:20 AM 44.6 °F 41.4 °F 42.8 °F 93% 29.56 in 6.2 mi South 5.8 mph - N/A Rain Light Rain Showers
8:50 AM 44.6 °F 42.2 °F 42.8 °F 93% 29.56 in 6.2 mi South 4.6 mph - N/A   Mostly Cloudy
9:20 AM 46.4 °F 44.3 °F 44.6 °F 93% 29.56 in 6.2 mi SSE 4.6 mph - N/A   Scattered Clouds
9:50 AM 46.4 °F 44.3 °F 44.6 °F 93% 29.56 in 6.2 mi South 4.6 mph - N/A   Scattered Clouds
10:20 AM 46.4 °F 43.5 °F 44.6 °F 93% 29.56 in 6.2 mi SSW 5.8 mph - N/A   Mostly Cloudy
10:50 AM 48.2 °F - 44.6 °F 87% 29.56 in 6.2 mi South 6.9 mph - N/A   Mostly Cloudy
11:20 AM 48.2 °F - 46.4 °F 93% 29.56 in 6.2 mi South 6.9 mph - N/A   Mostly Cloudy
11:50 AM 50.0 °F - 46.4 °F 87% 29.56 in 6.2 mi South 8.1 mph - N/A   Mostly Cloudy
12:20 PM 50.0 °F - 46.4 °F 87% 29.56 in 6.2 mi SSW 6.9 mph - N/A   Mostly Cloudy
12:50 PM 50.0 °F - 44.6 °F 82% 29.56 in 6.2 mi SSW 5.8 mph - N/A   Mostly Cloudy
1:20 PM 50.0 °F - 46.4 °F 87% 29.56 in 6.2 mi SW 6.9 mph - N/A   Mostly Cloudy
1:50 PM 51.8 °F - 46.4 °F 82% 29.56 in 6.2 mi SW 5.8 mph - N/A   Mostly Cloudy
2:20 PM 53.6 °F - 46.4 °F 77% 29.56 in 6.2 mi WSW 8.1 mph - N/A   Mostly Cloudy
2:50 PM 53.6 °F - 46.4 °F 77% 29.56 in 6.2 mi SW 6.9 mph - N/A   Mostly Cloudy
3:20 PM 53.6 °F - 44.6 °F 72% 29.59 in 6.2 mi West 9.2 mph 21.9 mph N/A Rain Light Rain Showers
3:50 PM 51.8 °F - 46.4 °F 82% 29.59 in 6.2 mi WSW 3.5 mph - N/A Rain Light Rain Showers
4:20 PM 53.6 °F - 46.4 °F 77% 29.59 in 6.2 mi West 6.9 mph - N/A   Partly Cloudy
4:50 PM 53.6 °F - 44.6 °F 72% 29.59 in 6.2 mi West 8.1 mph - N/A   Scattered Clouds
5:20 PM 53.6 °F - 44.6 °F 72% 29.59 in 6.2 mi WNW 8.1 mph - N/A   Scattered Clouds
5:50 PM 51.8 °F - 44.6 °F 76% 29.62 in 6.2 mi WNW 2.3 mph - N/A   Scattered Clouds
6:20 PM 50.0 °F - 46.4 °F 87% 29.62 in 6.2 mi West 2.3 mph - N/A   Partly Cloudy
6:50 PM 48.2 °F - 46.4 °F 93% 29.65 in 6.2 mi West 4.6 mph - N/A Rain Light Rain Showers
7:20 PM 48.2 °F - 44.6 °F 87% 29.65 in 6.2 mi WNW 10.4 mph - N/A Rain Light Rain Showers
7:50 PM 46.4 °F 44.3 °F 44.6 °F 93% 29.68 in 6.2 mi WSW 4.6 mph - N/A   Scattered Clouds
8:20 PM 46.4 °F 43.5 °F 42.8 °F 87% 29.68 in 6.2 mi West 5.8 mph - N/A   Scattered Clouds
8:50 PM 44.6 °F - 42.8 °F 93% 29.68 in 6.2 mi WSW 2.3 mph - N/A   Scattered Clouds
9:20 PM 44.6 °F - 42.8 °F 93% 29.71 in 1.6 mi SSW 1.2 mph - N/A   Scattered Clouds
9:50 PM 44.6 °F - 42.8 °F 93% 29.71 in 0.5 mi WSW 1.2 mph - N/A Fog Patches of Fog
10:20 PM 42.8 °F - 41.0 °F 93% 29.71 in 0.6 mi WSW 1.2 mph - N/A Fog Patches of Fog
10:50 PM 42.8 °F - 41.0 °F 93% 29.71 in 0.6 mi SW 1.2 mph - N/A Fog Patches of Fog
11:20 PM 42.8 °F 41.1 °F 41.0 °F 93% 29.74 in 3.7 mi WSW 3.5 mph - N/A   Scattered Clouds
11:50 PM 42.8 °F 40.1 °F 41.0 °F 93% 29.74 in 6.2 mi SW 4.6 mph - N/A   Scattered Clouds